Flag Weather past 2 weeks in Winsen (Luhe), Lower Saxony, Germany

Now
61 °F

Passing clouds.


Feels Like: 61 °F
Forecast: 50 / 63 °F
Wind: 6 mph from Southwest

Location: Hamburg-Finkenwerder

Current Time: Oct 31, 2014 at 1:21:02 PM

Latest Report: Oct 31, 2014 at 12:50 PM


Visibility: N/A

Pressure: 30.18 "Hg

Humidity: 83%

Dew point: 55 °F

Location of Winsen (Luhe)Location

Historic Weather in Winsen (Luhe) — Graph

°F

Winsen (Luhe) temperature yesterday

Maximum temperature yesterday: 52 °F (at 11:50 AM)
Minimum temperature yesterday: 37 °F (at 8:20 AM)
Average temperature yesterday: 47 °F

Past Weeks' High & Low Weather Summary

 TemperatureHumidityPressure
High61 °F (Oct 17, 12:50 PM)100% (Oct 16, 6:50 PM)30.27 "Hg (Oct 16, 6:50 PM)
Low37 °F (Oct 30, 8:20 AM)55% (Oct 28, 2:50 PM)29.36 "Hg (Oct 21, 6:20 PM)
Average53 °F89%29.97 "Hg
* Reported Oct 16 1:20 PM — Oct 31 12:20 PM, Winsen (Luhe), Weather by CustomWeather, © 2014

Note: Actual official high and low records may vary slightly from our data, if they occured in-between our weather recording intervals... More about our weather records

Advertising

Winsen (Luhe) weather history for previous 24 hours

 ConditionsComfort  
Time TempWeatherWind HumidityBarometerVisibility
12:20 PM
Oct 31
61 °FSunny.8 mph83%30.18 "Hg10 mi
11:50 AM59 °FPassing clouds.7 mph88%30.18 "HgN/A
11:20 AM57 °FBroken clouds.8 mph94%30.18 "HgN/A
10:50 AM55 °FPartly sunny.7 mph94%30.21 "HgN/A
10:20 AM55 °FPartly sunny.3 mph100%30.21 "Hg6 mi
9:50 AM54 °FOvercast.2 mph100%30.21 "Hg6 mi
9:20 AM54 °FOvercast.2 mph100%30.21 "Hg5 mi
8:50 AM54 °FOvercast.2 mph100%30.21 "Hg5 mi
8:20 AM52 °FOvercast.2 mph100%30.21 "Hg5 mi
7:50 AM52 °FOvercast.3 mph100%30.18 "Hg4 mi
7:20 AM52 °FMostly cloudy.3 mph100%30.18 "Hg4 mi
6:50 AM52 °FFog.2 mph100%30.18 "Hg2 mi
6:20 AM52 °FFog.2 mph100%30.18 "Hg2 mi
5:50 AM52 °FFog.2 mph100%30.18 "Hg2 mi
7:20 PM
Oct 30
50 °FMostly cloudy.5 mph100%30.24 "Hg4 mi
6:50 PM50 °FMostly cloudy.5 mph100%30.24 "Hg4 mi
6:20 PM50 °FMostly cloudy.5 mph100%30.27 "Hg4 mi
5:50 PM50 °FMostly cloudy.7 mph100%30.24 "Hg4 mi
5:20 PM50 °FFog.6 mph100%30.24 "Hg3 mi
4:50 PM50 °FDrizzle. Fog.5 mph100%30.24 "Hg3 mi
4:20 PM50 °FDrizzle. Fog.5 mph100%30.24 "Hg3 mi
3:50 PM50 °FMostly cloudy.6 mph100%30.24 "Hg4 mi
3:20 PM50 °FMostly cloudy.6 mph100%30.24 "Hg4 mi
2:50 PM50 °FMostly cloudy.6 mph100%30.24 "Hg6 mi
2:20 PM50 °FMostly cloudy.7 mph94%30.24 "HgN/A
1:50 PM52 °FPartly sunny.6 mph88%30.24 "HgN/A
1:20 PM52 °FPartly sunny.7 mph88%30.24 "HgN/A
Weather by CustomWeather, © 2014

See weather overviewHow to use our weather pages